Погода в Выползове

Россия / Тверская область     57°52′35″N   33°41′56″E
темп.,
°C
ветер,
м/с
пор.,
м/с
влажн.,
%
обл.,
%
осадки,
мм/ч
давл.,
гПа
погр.,
м
27 января, чт
чт2700:00−12ююз2896100 0.0 1015163
03:00−10ю3993100 0.0 1013234
06:00−10ю41092100 0.0 1011281
09:00−10ю41290100 0.0 1010351
12:00−9ю51390100 0.0 1008413
15:00−7ю51294100 0.2 1005523
18:00−7ю5119499 0.5 1004483
21:00−7ю51294100 0.8 1002441
28 января, пт
пт2800:00−7ююв51294100 0.1 1000442
03:00−7ююв51395100 0.4 999473
06:00−6ююв51395100 0.8 996509
09:00−6ююв51295100 1.8 996506
12:00−4ююв41095100 0.9 996469
15:00−3юв489699 1.4 996401
18:00−3юв3897100 0.5 997327
21:00−4юв379780 0.8 997197
29 января, сб
сб2900:00−5юв2597100 0.2 999137
03:00−6юв1298100 0.6 100057
06:00−5ссз2697100 0.7 1001220
09:00−7сз499492 1.3 1003387
12:00−6сз389499 0.1 1004535
15:00−7зсз3794100 0.2 1004453
18:00−13зюз259993 0.1 100475
21:00−15ююз24100100 0.1 100247
30 января, вс
вс3000:00−12ю31098100 0.0 997203
03:00−10юв51493100 0.0 991408
06:00−8юв71894100 0.3 983780
09:00−6юв71594100 2.0 978972
12:00−5юв71594100 1.8 976894
15:00−4юв61295100 3.3 975609
18:00−3вюв51296100 1.0 976541
21:00−2вюв41197100 2.3 977510
31 января, пн
пн3100:00−3в4996100 0.4 979447
03:00−5всв389691 0.6 981261
06:00−6св389697 0.2 983258
09:00−8св389588 0.3 986259
12:00−7ссв3695100 0.1 989325
15:00−6с379498 0.3 991460
18:00−7с389589 0.2 993358
21:00−8ссз499495 0.4 995385